Погода в Ривере

Уругвай     30°54′09″S   55°32′00″W
темп.,
°C
ветер,
м/с
пор.,
м/с
влажн.,
%
обл.,
%
осадки,
мм/ч
давл.,
гПа
погр.,
м
8 мая, сб
сб800:00+8вюв2390100 0.0 102751
03:00+7вюв2492100 0.0 102781
06:00+6в23945 0.0 102741
09:00+10всв36803 0.0 1028242
12:00+16всв45615 0.0 1027831
15:00+19всв45510 0.0 10241052
18:00+14в22720 0.0 102413
21:00+10в23815 0.0 102549
9 мая, вс
вс900:00+9в26810 0.0 1025109
03:00+9всв29960 0.0 1023189
06:00+8всв299713 0.0 1023178
09:00+12св398780 0.0 1024267
12:00+19св456061 0.0 1023553
15:00+21св34536 0.0 1020844
18:00+18ссв1166100 0.0 102011
21:00+17св2467100 0.0 102086
10 мая, пн
пн1000:00+16ссв1269100 0.0 102020
03:00+16св1168100 0.0 101913
06:00+15юз2385100 0.3 102083
09:00+14ююз249699 1.0 1021150
12:00+15ююз2696100 0.9 1021276
15:00+15юз2491100 1.1 1019243
18:00+13ююз229399 0.1 101934
21:00+13ююз2593100 0.1 1021140
11 мая, вт
вт1100:00+10ююз3995100 0.0 1022246
03:00+10ю4109442 0.0 1021340
06:00+7ю2696100 0.0 1021141
09:00+9ю3781100 0.0 1023256
12:00+13ю4555100 0.0 1022738
15:00+15ю3546100 0.0 1020980
18:00+12ююз2264100 0.0 102031
21:00+8ююз23748 0.0 102257
12 мая, ср
ср1200:00+6юз23810 0.0 102251
03:00+5ююз24890 0.0 102256
06:00+4юз23940 0.0 102243
09:00+9юз24750 0.0 1024176
12:00+15ююз34480 0.0 1022797
15:00+17ююз34400 0.0 1020981
18:00+11ююз22635 0.0 102015
21:00+8ююз227348 0.0 102211